www.pogodaiklimat.ru

Погода и климат >> Архив погоды >> Аргентина >> Trelew


ПОГОДА в Trelew

  • Прогноз погоды в Trelew
  • Монитор погоды в Trelew
  • Климат города

АРХИВ ПОГОДЫ в Trelew

Время (UTC), дата Ветер
(напр.,м/с)
 
Видим.   Явления Облачность Т
(С)
Тd
(С)
f
(%)
Тe
(С)
Тes
(С)
Комфортность P
(гПа)
Po
(гПа)
Тmin
(С)
Tmax
(С)
R
(мм)
R24
(мм)
S
(см)
12 17.04 З 5 30 км ясно +10.0 -0.8 47 +8 +8 1018.5 1013.4 +7.0 +23.2
15 17.04 З 8 30 км ясно +16.2 -2.7 27 +15 +16 1018.6 1013.6
18 17.04 З 5 30 км 1/0
[Ac lent]
+18.6 -6.0 18 +18 +21 1017.5 1012.4
21 17.04 СЗ 7 30 км 3/0
[Ci fib]
+19.4 -6.0 17 +19 +19 1016.2 1011.0
00 18.04 С 6 30 км 1/0
[Ci fib]
+14.0 -3.7 29 +12 +12 1016.3 1011.0 +9.8 +20.1
03 18.04 штиль 0 30 км ясно +11.2 +1.3 50 +11 +11 1016.6 1011.4
06 18.04 СЗ 3 30 км ясно +9.4 +0.6 54 +7 +7 1015.6 1010.4
09 18.04 СЗ 3 30 км ясно +8.0 -2.1 49 +6 +6 1015.1 1009.8
12 18.04 З 3 30 км 1/0
[Ac lent Cs]
+8.0 -1.0 53 +6 +6 1015.4 1010.2 +5.2 +14.5
15 18.04 З 6 30 км ясно +20.2 -0.2 25 +20 +23 1013.5 1008.4
18 18.04 З 8 30 км 1/0
[Ci fib]
+24.0 +3.3 26 +23 +24 комфорт 1010.4 1005.3
21 18.04 СЗ 4 30 км 1/0
[Ci fib]
+25.0 +1.4 21 +24 +24 комфорт 1008.8 1003.7
00 19.04 С 6 30 км 1/0
[Ci sp]
+18.6 -2.3 24 +18 +18 1008.4 1003.3 +8.0 +22.5
03 19.04 С 6 30 км ясно +18.4 +1.4 32 +18 +18 1008.1 1003.0
06 19.04 СЗ 3 30 км ясно +15.8 +1.0 37 +15 +15 1008.1 1003.0
09 19.04 З 4 30 км ясно +14.8 +3.5 47 +14 +14 1007.4 1002.4
12 19.04 СЗ 4 30 км 4/0
[Ac lent Ci sp]
+17.0 +5.5 47 +17 +17 1007.5 1002.4 +11.5 +19.0
15 19.04 СЗ 7 30 км 3/0
[Ac lent Ci sp]
+25.4 +5.2 27 +25 +26 комфорт 1006.4 1001.4
18 19.04 ЮЗ 6 30 км 4/0
[Cs]
+29.2 +3.3 19 +27 +29 жарко 1004.7 999.7
21 19.04 СЗ 3 30 км 8/0
[Ac As Cs]
+28.8 +3.9 20 +27 +27 жарко 1003.3 998.2
00 20.04 0 н/о +24.3 +3.2 25 +32 +32 очень
душно
1003.3 998.2 +16.4 +30.0
03 20.04 СЗ 4 30 км 6/0
[Ac As Cs]
+19.1 +3.0 34 +19 +19 1004.0 999.0
06 20.04 СВ 2 30 км [макс. диам. градин 200 мм] 4/0
[Ac As Cs]
+16.6 +5.0 46 +17 +17 1005.5 1000.5
09 20.04 СЗ 3 30 км 3/0
[Cs]
+16.0 +3.5 43 +16 +16 1005.9 1000.9
12 20.04 З 5 30 км 4/0
[Ac lent Ci fib]
+17.2 +4.2 42 +17 +17 1007.0 1002.0 +14.0 +23.2
15 20.04 З 7 30 км 1/0
[Ac lent Ci fib]
+24.0 +5.2 30 +24 +25 комфорт 1007.0 1002.0
18 20.04 СЗ 8 30 км 4/0
[Cs]
+27.6 +5.5 24 +27 +28 жарко 1004.7 999.7
21 20.04 З 6 30 км 8/0
[Ac As Cs]
+26.2 +4.1 24 +25 +25 комфорт 1004.8 999.8
00 21.04 СЗ 3 30 км 4/0
[Cs]
+18.0 +4.8 42 +18 +18 1007.0 1001.8 +17.0 +29.0
03 21.04 З 4 30 км 3/0
[Cs]
+19.9 +4.6 37 +21 +21 комфорт 1010.2 1005.2
06 21.04 ЮВ 2 30 км 3/0
[Cs]
+13.5 +3.6 51 +13 +13 1011.9 1006.9
09 21.04 СЗ 2 30 км 1/0
[Cs]
+7.8 +0.9 62 +6 +6 1012.5 1007.4
12 21.04 штиль 0 30 км 4/0
[Cs]
+10.0 +1.4 55 +10 +10 1013.6 1008.4 +6.5 +20.4
15 21.04 С 7 30 км 4/0
[Ac lent Ci sp]
+18.6 -0.7 27 +18 +19 1011.5 1006.5
18 21.04 С 9 30 км 6/0
[Ac As Cs]
+24.4 +1.2 22 +23 +24 комфорт 1006.8 1001.8
21 21.04 С 8 30 км 5/0
[Ac lent Cs]
+22.4 +4.8 32 +23 +23 комфорт 1004.4 999.3
03 22.04 С 3 30 км ясно +18.4 +5.4 42 +19 +19 1002.2 997.2
06 22.04 СЗ 7 30 км ясно +17.0 +4.4 43 +16 +16 1003.7 998.6
09 22.04 З 4 30 км 3/0
[Cs]
+16.6 +0.7 34 +16 +16 1004.9 999.8
12 22.04 ЮЗ 3 30 км 6/4 1110 м
[Sc Ac lent]
+14.4 +2.9 46 +14 +14 1010.6 1005.4 +10.0 +21.8
15 22.04 З 12 30 км 9/4 1140 м
[Sc Ac lent Cs]
+16.6 -3.6 25 +15 +15 1013.9 1008.8
18 22.04 ЮЗ 6 30 км {ливн. осадки} 8/1 1140 м
[Sc Ac lent Cs]
+16.0 -7.4 19 +15 +16 1015.2 1010.1 0.0
21 22.04 ЮЗ 3 30 км 4/0
[Ac lent Ci sp]
+17.2 -6.5 19 +17 +17 1017.3 1012.2
00 23.04 З 1 30 км 1/0
[Ci sp]
+9.0 -5.1 36 +9 +9 1019.5 1014.4 +8.0 +18.0
03 23.04 З 2 30 км ясно +5.4 -1.0 63 +3 +3 1021.1 1016.0
06 23.04 СЗ 3 30 км ясно +3.4 -7.7 44 0 0 1022.2 1016.9
09 23.04 З 1 30 км ясно +1.8 -8.5 46 +1 +1 1022.1 1016.8
12 23.04 СЗ 2 30 км ясно +4.4 -7.9 40 +2 +3 1023.6 1018.3 +0.4 +9.0 0.0
15 23.04 З 5 30 км ясно +14.1 -5.3 26 +13 +16 1023.4 1018.1
18 23.04 З 5 30 км ясно +17.2 -4.5 22 +17 +20 1021.3 1016.0
21 23.04 З 2 30 км 1/0
[Ci fib]
+17.0 -7.0 19 +17 +17 1021.1 1015.8
00 24.04 С 3 30 км 1/0
[Ci fib]
+7.8 -1.7 51 +6 +6 1022.6 1017.3 +4.2 +18.4
03 24.04 С 4 30 км ясно +5.4 -1.0 63 +2 +2 1022.3 1017.0
06 24.04 З 3 30 км 3/0
[Ci sp]
+4.8 -0.5 69 +2 +2 1021.8 1016.6
09 24.04 СЗ 3 30 км 4/0
[Ci sp]
+3.2 -2.5 66 0 0 1021.6 1016.4

 

Местоположение метеостанции Trelew (Аргентина): широта -43.20 долгота -65.26 высота над уровнем моря 43 м.

В архиве по умолчанию представлена погода в Trelew за последнюю неделю. Архивные данные за месяц целиком и за предыдущие месяцы, начиная с января 2011 года, Вы можете получить, выбрав интересующий диапазон дат из раскрывающегося списка и нажав кнопку "Ввод!".


*Определитесь, кто Вы:
робот инопланетянин человек

Внимание! Время в таблицах - всемирное. Для получения местного времени необходимо прибавить поправку, которая в Trelew равна -3 ч.

Смотрите также архив погоды в соседних городах и на ближайших метеорологических станциях:

Погода в San Antonio Oeste (Аргентина) (270 км)
Погода в Viedma (Аргентина) (321 км)
Погода в Comodoro Rivadavia (Аргентина) (338 км)
Погода в Maquinchao (Аргентина) (359 км)
Погода в Esquel (Аргентина) (479 км)
Погода в Alto Palena (Чили) (529 км)
Погода в Neuquen (Аргентина) (530 км)
Погода в El Bolson (Аргентина) (530 км)
Погода в Futaleufu (Чили) (531 км)
Погода в San Carlos de Bariloche (Аргентина) (537 км)

Пояснения к столбцам:

Ветер - указаны скорость ветра в м/с - средняя за 10 мин, порывы в срок и между сроками (в фигурных скобках) и направление, откуда дует ветер: С - северный, СВ - северо-восточный, В - восточный, ЮВ - юго-восточный, Ю - южный, ЮЗ - юго-западный, З - западный, СЗ - северо-западный.
Видимость - горизонтальная дальность видимости в метрах или километрах. При видимости от 1 до 10 км при отсутствии осадков обычно наблюдается дымка, при ухудшении видимости до 1 км и менее - туман. В сухую погоду видимость может ухудшаться дымом, пылью или мглою.
Явления - указаны атмосферные явления, наблюдавшиеся в срок или в последний час перед сроком; фигурными скобками обозначены явления, наблюдавшиеся между сроками (за 1-3 часа до срока); квадратными скобками обозначены град или гололедные отложения с указанием их диаметра в мм.
Облачность - указаны через наклонную черту общая и нижняя облачность в баллах и высота нижней границы облаков в метрах; квадратными скобками обозначены формы облаков: Ci - перистые, Cs - перисто-слоистые, Cc - перисто-кучевые, Ac - высококучевые, As - высокослоистые, Sc - слоисто-кучевые, Ns - слоисто-дождевые, Cu - кучевые, Cb - кучево-дождевые. Подробнее классификацию облаков см. в Атласе облаков (PDF).
T - Температура воздуха - температура, измеренная на высоте 2 м над землей.
Td - Температура точки росы - температура, при понижении до которой содержащийся в воздухе водяной пар достигнет насыщения.
f - Относительная влажность воздуха - влажноcть воздуха, измеренная на высоте 2 м над землей.
Te - Эффективная температура - температура, которую ощущает одетый по сезону человек в тени. Характеристика душности погоды. При расчете учитывается влияние влажности воздуха и скорости ветра на теплоощущения человека.
Tes - Эффективная температура на солнце - температура, которую ощущает человек, с поправкой на солнечный нагрев. Характеристика знойности погоды. Зависит от высоты солнца над горизонтом, облачности и скорости ветра. Ночью, в пасмурную погоду, а также при ветре 12 м/с и более поправка равна нулю.
P - Атмосферное давление - приведенное к уровню моря атмосферное давление.
Po - Атмосферное давление - измеренное на уровне метеостанции атмосферное давление.
Tmin - Минимальная температура - минимум температуры воздуха на высоте 2 м над землей.
Tmax - Максимальная температура - максимум температуры воздуха на высоте 2 м над землей.
R - Количество осадков - Количество выпавших осадков за период времени, мм. При наведении курсора мыши на число - период времени, за который выпало указанное количество осадков.
R24 - Количество осадков - Количество выпавших осадков за 24 часа, мм.
S - Снежный покров - Высота снежного покрова, см. При наведении курсора мыши на число - состояние снежного покрова и степень покрытия местности в баллах.